Location: Сочи
(43.6028°N, 39.7342°E)
Time: 12:44:50
(UTC+03:00)

N. Korean satellite - Visible Passes

Search period start: 20 October 2019 00:00
Search period end: 30 October 2019 00:00
Orbit: 455 x 508 km, 97.2° (Epoch: 19 October)

Date Brightness Start Highest point End Pass type
(mag) Time Alt. Az. Time Alt. Az. Time Alt. Az.
20 Oct 10.0 18:26:05 10° SW 18:28:12 15° W 18:30:20 10° NW visible
21 Oct 8.6 05:49:36 10° NNE 05:52:57 34° E 05:56:19 10° SSE visible
21 Oct 8.7 17:59:39 10° SSW 18:02:44 31° W 18:05:51 10° NNW visible
22 Oct 9.9 05:25:01 10° NE 05:27:31 18° E 05:30:03 10° SE visible
24 Oct 7.4 06:06:52 10° NNE 06:10:28 59° E 06:14:07 10° S visible
24 Oct 9.7 18:17:45 10° SW 18:20:17 19° W 18:22:50 10° NW visible
25 Oct 9.0 05:41:53 10° NE 05:45:06 28° E 05:48:19 10° SSE visible
25 Oct 8.2 17:51:36 10° S 17:54:50 39° W 17:58:08 10° NNW visible
26 Oct 10.1 05:17:30 10° ENE 05:19:38 15° E 05:21:45 10° SE visible
27 Oct 10.2 18:36:30 10° WSW 18:37:51 12° W 18:39:13 10° WNW visible
28 Oct 7.9 05:59:02 10° NNE 06:02:36 47° E 06:06:11 10° S visible
28 Oct 9.3 18:09:29 10° SSW 18:12:19 24° W 18:15:13 10° NW visible
29 Oct 9.4 05:34:10 10° NE 05:37:11 23° E 05:40:12 10° SSE visible
29 Oct 7.6 17:43:32 10° S 17:46:54 50° W 17:50:21 10° NNW visible
